Home   Weather   Schwäbisch Hall   Past weeks

Flag for Germany Past Weather in Schwäbisch Hall, Baden-Württemberg, Germany — Yesterday and Last 2 Weeks

Now
43 °F

Low clouds.


Feels Like: 34 °F
Forecast: 44 / 49 °F
Wind: 22 mph from Southwest

Location: Niederstetten

Current Time: Feb 20, 2017 at 2:24:34 pm

Latest Report: Feb 20, 2017 at 1:50 pm


Visibility: N/A

Pressure: 30.09 "Hg

Humidity: 87%

Dew Point: 39 °F

Location of Schwäbisch HallLocation

Past Weather in Schwäbisch Hall — Graph

°F

Schwäbisch Hall Temperature Yesterday

Maximum temperature yesterday: 41 °F (at 1:20 pm)
Minimum temperature yesterday: 30 °F (at 4:20 am)
Average temperature yesterday: 36 °F

High & Low Weather Summary for the Past Weeks

 TemperatureHumidityPressure
High55 °F (Feb 16, 3:20 pm)100% (Feb 6, 11:10 pm)30.54 "Hg (Feb 6, 11:10 pm)
Low25 °F (Feb 9, 5:20 am)50% (Feb 14, 3:20 pm)29.56 "Hg (Feb 5, 3:20 pm)
Average36 °F82%30.20 "Hg
* Reported Feb 5 1:20 pm — Feb 20 1:20 pm, Schwäbisch Hall, Weather by CustomWeather, © 2017

Note: Actual official high and low records may vary slightly from our data, if they occured in-between our weather recording intervals... More about our weather records

Advertising

Schwäbisch Hall Weather History for the Previous 24 Hours

Scroll right to see more
 ConditionsComfort  
Time TempWeatherWind HumidityBarometerVisibility
1:20 pm
Mon, Feb 20
43 °FPartly sunny.21 mph87%30.09 "HgN/A
12:20 pm43 °FPartly sunny.17 mph81%30.12 "HgN/A
11:20 am41 °FPartly sunny.21 mph87%30.15 "HgN/A
10:20 am41 °FBroken clouds.16 mph87%30.15 "HgN/A
9:45 am41 °FPartly sunny.16 mph87%30.15 "HgN/A
9:20 am41 °FBroken clouds.15 mph87%30.15 "HgN/A
8:20 am39 °FPartly sunny.12 mph93%30.15 "HgN/A
7:20 am39 °FPartly cloudy.10 mph87%30.15 "HgN/A
6:20 am39 °FPartly cloudy.10 mph87%30.15 "HgN/A
5:20 am39 °FPassing clouds.12 mph87%30.15 "HgN/A
4:20 am39 °FOvercast.8 mph87%30.15 "HgN/A
3:20 am41 °FPassing clouds.9 mph81%30.15 "HgN/A
2:20 am41 °FPartly cloudy.10 mph81%30.15 "HgN/A
1:20 am41 °FOvercast.8 mph81%30.15 "HgN/A
12:20 am41 °FOvercast.8 mph81%30.18 "HgN/A
11:20 pm
Sun, Feb 19
39 °FOvercast.10 mph87%30.15 "HgN/A
10:23 pm39 °FPassing clouds.8 mph87%30.15 "HgN/A
9:20 pm39 °FPassing clouds.9 mph87%30.15 "HgN/A
8:20 pm37 °FOvercast.6 mph93%30.15 "HgN/A
7:20 pm39 °FOvercast.6 mph81%30.15 "HgN/A
6:20 pm39 °FPartly cloudy.6 mph81%30.15 "HgN/A
5:20 pm39 °FBroken clouds.8 mph75%30.15 "HgN/A
4:20 pm41 °FPartly sunny.10 mph70%30.15 "HgN/A
3:50 pm41 °FBroken clouds.13 mph76%30.15 "HgN/A
3:20 pm41 °FBroken clouds.15 mph76%30.15 "HgN/A
2:20 pm41 °FBroken clouds.14 mph76%30.15 "HgN/A
Weather by CustomWeather, © 2017

See weather overviewHow to use our weather pages